Weather History for Edwards AFB North Base, CA

Change the Weather History Date:

Tuesday, January 8, 2013

  Actual Average (KEDW) Record (KEDW)
Temperature  
Mean Temperature 44 °F -  
Max Temperature 64 °F 57 °F 70 °F (2009)
Min Temperature 23 °F 30 °F 15 °F (2000)
Degree Days  
Heating Degree Days 22    
Moisture  
Dew Point 17 °F    
Average Humidity 42    
Maximum Humidity 57    
Minimum Humidity 22    
Precipitation  
Precipitation 0.00 in - - ()
Sea Level Pressure  
Sea Level Pressure 30.20 in    
Wind  
Wind Speed 2 mph (West)    
Max Wind Speed 6 mph    
Max Gust Speed -    
Visibility 10 miles    
Events      
Averages and records for this station are not official NWS values.
T = Trace of Precipitation, MM = Missing Value Source: NWS Daily Summary

Daily Weather History Graph

Daily Weather History Graph

Search for Another Location

Airport:

Trip Planner

Search our weather history database for the weather conditions in past years. The results will help you decide how hot, cold, wet, or windy it might be!

Date:

Astronomy

Jan. 08, 2013 Rise Set
Actual Time 6:59 AM PST 4:56 PM PST
Civil Twilight 6:32 AM PST 5:24 PM PST
Nautical Twilight 6:00 AM PST 5:56 PM PST
Astronomical Twilight 5:30 AM PST 6:26 PM PST
Moon 3:38 AM PST (1/8) 2:03 PM PST (1/8)
Length of Visible Light 10h 52m
Length of Day
9h 57m
Waning Crescent, 13% of the Moon is Illuminated
Jan 8
Waning Crescent
Jan 11
New
Jan 18
First Quarter
Jan 26
Full
Feb 3
Last Quarter

Hourly Weather History & Observations

Time (PST) Temp. Windchill Dew Point Humidity Pressure Visibility Wind Dir Wind Speed Gust Speed Precip Events Conditions
12:55 AM 26.1 °F 21.9 °F 10.0 °F 51% 30.15 in 10.0 mi West 3.5 mph - N/A   Clear
1:55 AM 26.1 °F - 10.0 °F 51% 30.14 in 10.0 mi Calm Calm - N/A   Clear
2:55 AM 25.0 °F 18.1 °F 9.0 °F 51% 30.15 in 10.0 mi NNE 5.8 mph - N/A   Clear
3:55 AM 25.0 °F 19.3 °F 10.9 °F 55% 30.15 in 10.0 mi West 4.6 mph - N/A   Clear
4:55 AM 24.1 °F - 10.0 °F 55% 30.15 in 10.0 mi Calm Calm - N/A   Clear
5:55 AM 24.1 °F - 10.9 °F 57% 30.18 in 10.0 mi Calm Calm - N/A   Clear
6:55 AM 23.0 °F - 9.0 °F 55% 30.21 in 10.0 mi Calm Calm - N/A   Clear
7:55 AM 28.0 °F - 10.9 °F 49% 30.25 in 10.0 mi Calm Calm - N/A   Clear
8:55 AM 34.0 °F - 15.1 °F 46% 30.27 in 10.0 mi Calm Calm - N/A   Clear
9:55 AM 37.9 °F - 17.1 °F 43% 30.28 in 10.0 mi Calm Calm - N/A   Clear
11:55 AM 54.0 °F - 21.0 °F 28% 30.20 in 10.0 mi Calm Calm - N/A   Clear
12:55 PM 57.9 °F - 21.9 °F 25% 30.18 in 10.0 mi SE 3.5 mph - N/A   Clear
1:55 PM 61.0 °F - 25.0 °F 25% 30.17 in 10.0 mi SSE 3.5 mph - N/A   Clear
2:55 PM 62.1 °F - 24.1 °F 23% 30.17 in 10.0 mi Calm Calm - N/A   Clear
3:55 PM 64.0 °F - 24.1 °F 22% 30.16 in 10.0 mi Calm Calm - N/A   Clear
4:55 PM 60.1 °F - 24.1 °F 25% 30.17 in 10.0 mi Calm Calm - N/A   Clear
5:55 PM 48.0 °F - 19.9 °F 33% 30.21 in 10.0 mi Calm Calm - N/A   Clear
6:55 PM 46.0 °F - 19.9 °F 35% 30.22 in 10.0 mi Calm Calm - N/A   Clear
7:55 PM 42.1 °F 40.2 °F 19.0 °F 40% 30.24 in 10.0 mi Variable 3.5 mph - N/A   Clear
8:55 PM 39.0 °F 36.8 °F 18.0 °F 43% 30.25 in 10.0 mi West 3.5 mph - N/A   Clear
9:55 PM 37.9 °F - 19.0 °F 47% 30.26 in 10.0 mi Calm Calm - N/A   Clear
10:55 PM 33.8 °F - 17.6 °F 52% 30.25 in 10.0 mi Calm Calm - N/A   Clear
11:55 PM 34.0 °F 28.8 °F 17.1 °F 50% 30.25 in 10.0 mi NW 5.8 mph - N/A   Clear